945  
ASUS42 KRAH 192110  
RWRRAH  
NORTH CAROLINA WEATHER ROUNDUP  
NATIONAL WEATHER SERVICE RALEIGH NC  
400 PM EST TUE NOV 19 2019  
 
NOTE: "FAIR" INDICATES FEW OR NO CLOUDS BELOW 12,000 FEET WITH NO  
SIGNIFICANT WEATHER AND/OR S TO VISIBILITY
.  
 
NCZ001-053-055-056-065-067-192200-  
WESTERN NORTH CAROLINA  
 
CITY SKY/WX TMP DP RH WIND PRES REMARKS
 
ASHEVILLE FAIR 55 31 39 NW3 29.80S  
JEFFERSON FAIR 46 25 44 W8 29.79S  
MORGANTON FAIR 58 31 35 CALM 29.83R  
HICKORY FAIR 54 41 61 S7 29.80S  
WILKESBORO NOT AVBL  
RUTHERFORDTON FAIR 55 37 50 S8 29.81R  
MOUNT AIRY FAIR 55 40 57 SW3 29.83R  
BOONE FAIR 46 25 43 NW7 29.81R  

 
 
NCZ021-022-025-041-071-084-088-192200-  
CENTRAL NORTH CAROLINA  
 
CITY SKY/WX TMP DP RH WIND PRES REMARKS
 
CHARLOTTE PTSUNNY 55 44 66 CALM 29.83S  
GREENSBORO PTSUNNY 53 40 61 S5 29.81R  
WINSTON-SALEM FAIR 54 39 57 CALM 29.83R  
RALEIGH-DURHAM PTSUNNY 55 43 63 NE3 29.83R  
FORT BRAGG CLOUDY 52 46 81 CALM 29.84R  
FAYETTEVILLE CLOUDY 53 44 71 W5 29.85R  
BURLINGTON FAIR 54 42 64 CALM 29.83R  
ROXBORO FAIR 48 41 76 CALM 29.85R  
HENDERSON FAIR 51 37 59 CALM 29.83R  
LOUISBURG FAIR 54 41 62 N3 29.85R  
LAURINBURG PTSUNNY 54 45 71 W5 29.85S  

 
 
NCZ011-015-027-028-043-044-047-080-103-192200-  
NORTHEASTERN NORTH CAROLINA  
 
CITY SKY/WX TMP DP RH WIND PRES REMARKS
 
ROCKY MT-WILSO FAIR 51 45 79 S5 29.84R  
GREENVILLE CLOUDY 48 45 87 CALM 29.87R  
WASHINGTON CLOUDY 49 46 87 N3 29.85R  
ELIZABETH CITY CLOUDY 51 44 77 CALM 29.84R  
MANTEO CLOUDY 49 44 83 NE5 29.83F  
CAPE HATTERAS CLOUDY 51 47 86 CALM 29.83R  

 
 
NCZ078-087-090-091-093-098-101-192200-  
SOUTHEASTERN NORTH CAROLINA  
 
CITY SKY/WX TMP DP RH WIND PRES REMARKS
 
GOLDSBORO CLOUDY 50 45 83 NW5 29.82R  
KINSTON CLOUDY 48 45 87 CALM 29.86R FOG  
KENANSVILLE CLOUDY 52 46 82 CALM 29.85R  
NEW BERN CLOUDY 49 46 90 NE3 29.85R  
CHERRY POINT CLOUDY 51 46 83 NE5 29.85R  
BEAUFORT CLOUDY 51 47 86 N9 29.83R  
JACKSONVILLE CLOUDY 52 46 80 N5 29.83R  
WILMINGTON FAIR 55 47 74 N6 29.84R  

 
 
 
 
CLICK HERE TO GO TO PREVIOUS BULLETINS.

The Nexlab NC Page Main Text Page